Total_Precipitation_Accumulation
1.17 1.35 1.62 1.92 2.16 2.37 2.49 2.63 2.67 2.59 2.60 2.72 2.65 2.39 2.11 1.91 1.68 1.58 1.56 1.44 1.36 1.37 1.23 1.03 0.99 1.02 0.94 0.86 0.85 0.86 0.83 0.75 0.72 0.67 0.52 0.41 0.37 0.35 0.29 0.25 0.23 0.20 0.20
0.93 1.10 1.36 1.60 1.86 2.10 2.38 2.55 2.66 2.71 2.49 2.32 2.41 2.38 2.25 2.07 1.89 1.77 1.69 1.56 1.46 1.40 1.35 1.28 1.20 1.18 1.15 1.10 1.04 1.03 1.00 0.93 0.91 0.85 0.77 0.57 0.42 0.33 0.29 0.26 0.24 0.22 0.22
0.78 0.92 1.10 1.29 1.55 1.79 2.07 2.33 2.51 2.65 2.66 2.53 2.59 2.48 2.32 2.10 1.85 1.66 1.61 1.58 1.54 1.50 1.42 1.39 1.39 1.37 1.32 1.24 1.18 1.16 1.16 1.12 1.06 1.01 1.04 0.80 0.54 0.40 0.35 0.31 0.27 0.25 0.25
0.71 0.82 0.96 1.12 1.30 1.54 1.73 1.94 2.27 2.50 2.61 2.67 2.56 2.38 2.14 1.87 1.63 1.60 1.71 1.72 1.64 1.56 1.48 1.45 1.44 1.46 1.42 1.32 1.34 1.34 1.24 1.26 1.22 1.16 1.07 0.92 0.73 0.65 0.50 0.39 0.37 0.34 0.30
0.67 0.74 0.84 1.00 1.16 1.35 1.52 1.64 1.88 2.22 2.35 2.30 2.28 2.27 2.12 1.89 1.76 1.70 1.66 1.64 1.56 1.48 1.42 1.40 1.43 1.41 1.41 1.37 1.38 1.41 1.40 1.34 1.31 1.25 1.20 1.19 1.04 0.88 0.81 0.63 0.49 0.47 0.42
0.71 0.76 0.83 0.93 1.02 1.12 1.31 1.51 1.56 1.75 1.96 1.97 2.01 2.04 1.91 1.80 1.71 1.60 1.55 1.55 1.50 1.39 1.31 1.28 1.30 1.35 1.35 1.32 1.33 1.41 1.47 1.48 1.38 1.27 1.17 1.15 1.10 0.98 0.96 0.86 0.66 0.58 0.50
0.83 0.89 0.88 0.95 1.02 1.05 1.08 1.26 1.35 1.42 1.59 1.76 1.84 1.82 1.80 1.72 1.64 1.54 1.49 1.48 1.45 1.36 1.29 1.24 1.24 1.28 1.32 1.37 1.43 1.44 1.44 1.50 1.48 1.42 1.33 1.25 1.13 1.05 1.06 1.05 0.87 0.72 0.58
0.96 0.99 0.99 1.11 1.16 1.15 1.11 1.14 1.18 1.17 1.27 1.47 1.63 1.66 1.68 1.60 1.49 1.39 1.32 1.29 1.24 1.23 1.25 1.29 1.32 1.33 1.35 1.35 1.38 1.36 1.33 1.37 1.40 1.39 1.34 1.28 1.19 1.19 1.19 1.17 1.21 1.11 0.88
1.01 1.07 1.11 1.15 1.13 1.09 1.12 1.13 1.15 1.10 1.05 1.13 1.25 1.36 1.43 1.40 1.31 1.22 1.14 1.12 1.12 1.13 1.16 1.21 1.26 1.28 1.27 1.25 1.27 1.25 1.22 1.26 1.30 1.31 1.32 1.27 1.17 1.16 1.17 1.18 1.25 1.36 1.21
0.88 0.98 0.98 0.97 1.02 1.03 1.05 1.09 1.12 1.13 1.06 1.03 1.07 1.16 1.17 1.14 1.09 1.05 0.99 0.93 0.93 0.94 0.97 1.04 1.10 1.12 1.11 1.10 1.12 1.13 1.10 1.14 1.13 1.15 1.22 1.23 1.16 1.13 1.14 1.17 1.21 1.29 1.35
0.68 0.71 0.73 0.78 0.83 0.89 0.98 1.06 1.15 1.13 1.01 1.02 1.05 1.05 1.06 1.08 1.00 0.93 0.90 0.91 0.87 0.85 0.89 0.91 0.96 0.98 0.98 0.99 0.99 0.98 0.97 0.99 0.99 1.01 1.04 1.07 1.09 1.14 1.14 1.16 1.20 1.25 1.31
0.59 0.58 0.57 0.57 0.58 0.64 0.72 0.81 0.91 0.91 0.88 0.88 0.96 0.93 0.94 1.02 0.99 0.91 0.86 0.85 0.82 0.75 0.75 0.77 0.80 0.81 0.81 0.82 0.84 0.85 0.85 0.85 0.85 0.86 0.91 0.92 0.96 1.00 1.05 1.12 1.17 1.20 1.22
0.46 0.42 0.43 0.45 0.44 0.46 0.53 0.63 0.72 0.73 0.74 0.76 0.79 0.78 0.78 0.84 0.86 0.89 0.87 0.84 0.82 0.75 0.68 0.66 0.67 0.67 0.68 0.69 0.70 0.72 0.73 0.75 0.76 0.76 0.79 0.82 0.87 0.93 0.94 0.98 1.02 1.04 1.06
0.35 0.31 0.29 0.30 0.31 0.34 0.43 0.48 0.53 0.56 0.58 0.58 0.59 0.59 0.63 0.65 0.66 0.68 0.71 0.71 0.70 0.68 0.64 0.60 0.57 0.57 0.60 0.64 0.65 0.67 0.68 0.69 0.70 0.72 0.75 0.77 0.80 0.82 0.84 0.88 0.90 0.91 0.92
0.22 0.20 0.19 0.20 0.22 0.23 0.29 0.35 0.42 0.47 0.52 0.53 0.51 0.51 0.52 0.53 0.54 0.54 0.53 0.53 0.54 0.55 0.56 0.55 0.55 0.53 0.53 0.56 0.59 0.63 0.66 0.68 0.70 0.71 0.72 0.76 0.83 0.85 0.83 0.81 0.81 0.82 0.87
0.15 0.13 0.12 0.13 0.16 0.17 0.20 0.25 0.32 0.39 0.43 0.47 0.47 0.48 0.47 0.46 0.46 0.46 0.46 0.45 0.45 0.47 0.50 0.53 0.57 0.60 0.62 0.75 0.71 0.65 0.66 0.70 0.70 0.69 0.67 0.67 0.71 0.70 0.72 0.72 0.71 0.76 0.84
0.11 0.10 0.11 0.11 0.11 0.12 0.18 0.24 0.28 0.29 0.32 0.36 0.37 0.37 0.38 0.41 0.41 0.42 0.46 0.52 0.56 0.57 0.60 0.65 0.68 0.71 0.78 0.86 0.78 0.73 0.65 0.66 0.67 0.65 0.60 0.56 0.55 0.56 0.49 0.54 0.58 0.61 0.70
0.06 0.06 0.07 0.07 0.08 0.10 0.14 0.22 0.29 0.32 0.36 0.40 0.39 0.37 0.37 0.43 0.48 0.54 0.60 0.69 0.77 0.80 0.83 0.87 0.88 0.87 0.86 0.85 0.75 0.71 0.62 0.59 0.55 0.50 0.45 0.42 0.39 0.38 0.39 0.42 0.50 0.48 0.47
0.05 0.05 0.05 0.06 0.08 0.10 0.12 0.17 0.26 0.34 0.39 0.44 0.48 0.49 0.52 0.59 0.64 0.73 0.82 0.85 0.91 0.92 0.89 0.85 0.83 0.80 0.74 0.70 0.61 0.52 0.44 0.44 0.43 0.38 0.35 0.35 0.33 0.39 0.46 0.46 0.48 0.38 0.33
0.10 0.07 0.07 0.08 0.11 0.14 0.17 0.24 0.32 0.41 0.48 0.53 0.59 0.61 0.63 0.67 0.69 0.70 0.73 0.73 0.73 0.70 0.64 0.61 0.57 0.54 0.50 0.48 0.43 0.40 0.34 0.32 0.30 0.29 0.30 0.35 0.35 0.42 0.50 0.46 0.42 0.35 0.31
0.20 0.18 0.18 0.19 0.22 0.26 0.33 0.41 0.48 0.57 0.62 0.63 0.66 0.68 0.65 0.64 0.60 0.53 0.47 0.45 0.43 0.39 0.34 0.32 0.30 0.28 0.27 0.28 0.28 0.30 0.28 0.28 0.28 0.27 0.27 0.29 0.40 0.46 0.50 0.44 0.36 0.38 0.42
0.21 0.25 0.28 0.29 0.30 0.36 0.44 0.51 0.56 0.58 0.55 0.49 0.46 0.43 0.38 0.35 0.32 0.28 0.26 0.25 0.24 0.24 0.22 0.20 0.18 0.16 0.15 0.17 0.19 0.22 0.25 0.28 0.26 0.25 0.25 0.29 0.41 0.43 0.41 0.40 0.40 0.44 0.43
0.09 0.13 0.18 0.22 0.22 0.23 0.26 0.29 0.28 0.25 0.23 0.20 0.18 0.18 0.17 0.17 0.17 0.16 0.15 0.15 0.16 0.17 0.16 0.16 0.16 0.15 0.14 0.16 0.21 0.23 0.27 0.31 0.30 0.27 0.30 0.33 0.35 0.34 0.34 0.38 0.43 0.43 0.38
0.07 0.07 0.07 0.08 0.08 0.07 0.07 0.07 0.07 0.07 0.08 0.08 0.09 0.10 0.11 0.12 0.13 0.12 0.12 0.12 0.13 0.15 0.16 0.17 0.17 0.17 0.17 0.18 0.21 0.25 0.28 0.32 0.33 0.32 0.31 0.31 0.30 0.30 0.32 0.34 0.36 0.38 0.39
0.07 0.07 0.08 0.08 0.08 0.08 0.08 0.08 0.07 0.07 0.07 0.08 0.10 0.11 0.12 0.14 0.15 0.15 0.15 0.17 0.18 0.20 0.22 0.21 0.22 0.23 0.23 0.23 0.31 0.36 0.36 0.38 0.40 0.41 0.36 0.33 0.32 0.31 0.30 0.31 0.32 0.35 0.39
0.06 0.07 0.08 0.10 0.10 0.09 0.08 0.09 0.09 0.10 0.10 0.10 0.11 0.11 0.13 0.14 0.16 0.16 0.17 0.19 0.21 0.22 0.24 0.24 0.25 0.24 0.26 0.31 0.37 0.39 0.40 0.44 0.51 0.53 0.42 0.34 0.32 0.32 0.32 0.33 0.35 0.38 0.42